User: anonymous   Login
Location: Mizzole
(45.4833°N, 11.0500°E)
Time: 08:04:48
(UTC+00:00)
Language:

Cosmos 44 - Orbit

View from above orbital plane
View from above orbital plane
View from above satellite
View from above satellite

Ground track
Ground track

The orbit data is extracted from the following two-line orbital elements,

1   876U 64053A   19349.92494813 -.00000088  00000-0  84817-5 0  9995
2   876  65.0602 129.3807 0123132 116.7828 244.5932 14.63746832941385
Epoch (UTC): 15 December 2019 22:11:55
Eccentricity: 0.0123132
inclination: 65.0602°
perigee height: 594 km
apogee height: 768 km
right ascension of ascending node: 129.3807°
argument of perigee: 116.7828°
revolutions per day: 14.63746832
mean anomaly at epoch: 244.5932°
orbit number at epoch: 94138

The dashed part of the orbit path shows where the satellite is in the earth's shadow,  

DLR